Starlink 31726

operational
NORAD ID: 59739 Int'l Des: 2024-090 Owner: SPXS Country: US Constellation: starlink
LEOCIRCULAR

About Starlink 31726

Description loading...

Live Position

Loading 3D Globe...

Upcoming Passes

Altitude History

Altitude vs Time

uPlot chart will show altitude changes over time

Two-Line Element Set

1 59739U 24090K 26070.32390797 .00001689 00000-0 70899-4 0 9994
2 59739 42.9985 173.9581 0000913 163.9183 196.1698 15.27576546103697
Epoch: Mar 11, 2026 • Age: 11 hours

Current Status

Altitude 483.1 km
Velocity 7.63 km/s
Sub-Earth Point 3.23°N, 156.45°W
Launch Date May 13, 2024
Age 1.8 years
Type internet

Technical Details

Classification Payload
Mass 730.00 kg
Dry Mass 700.00 kg
Total Mass 730.00 kg
Length 0.30 m
Diameter 4.10 m
Span 29.00 m
Shape Box + pan
Manufacturer SPXS
Bus Type Starlink V2M
Phase Status In Orbit
Owner/State SPXS/US

Large Constellations

Loading constellations...